User: anonymous   Login
Location: Barrio de Buenos Aires
(28.4500°N, 16.2667°W)
Time: 12:13:03
(UTC+00:00)
Language:

USA 234 - Orbit

View from above orbital plane
View from above orbital plane
View from above satellite
View from above satellite

Ground track
Ground track

The orbit data is extracted from the following two-line orbital elements,

1 38109U 12014A   20086.79531668 0.00000000  00000-0  00000-0 0    03
2 38109 123.0011 260.7816 0003726  85.4755 274.5245 13.41423737    07
Epoch (UTC): 26 March 2020 19:05:15
Eccentricity: 0.0003726
inclination: 123.0011°
perigee height: 1101 km
apogee height: 1107 km
right ascension of ascending node: 260.7816°
argument of perigee: 85.4755°
revolutions per day: 13.41423737
mean anomaly at epoch: 274.5245°
orbit number at epoch: 0

The dashed part of the orbit path shows where the satellite is in the earth's shadow,  

DLR